This is the latest recevied weather packets stored in our database for station/object GCLP. If no packets are shown the sender has not sent any weather packets the latest 1 day(s).
| Time | Temp. | Humidity | Pressure | Rain* | Wind** | Luminosity | Snow |
|---|---|---|---|---|---|---|---|
| 1778004205 | 21.67° C | 73% | 1013 hPa | - | 8.05 m/s, 30° | - | - |
| 1778003604 | 21.67° C | 73% | 1013 hPa | - | 8.05 m/s, 30° | - | - |
| 1778003000 | 21.67° C | 73% | 1013 hPa | - | 8.05 m/s, 30° | - | - |
| 1778002402 | 21.67° C | 68% | 1014 hPa | - | 5.36 m/s, 30° | - | - |
| 1778001801 | 21.67° C | 68% | 1014 hPa | - | 5.36 m/s, 30° | - | - |
| 1778001207 | 21.67° C | 68% | 1014 hPa | - | 5.36 m/s, 30° | - | - |
| 1778000605 | 22.78° C | 64% | 1014 hPa | - | 4.92 m/s, 40° | - | - |
| 1778000005 | 22.78° C | 64% | 1014 hPa | - | 4.92 m/s, 40° | - | - |
| 1777999407 | 22.78° C | 64% | 1014 hPa | - | 4.92 m/s, 40° | - | - |
| 1777998803 | 22.78° C | 69% | 1014 hPa | - | 5.81 m/s, 50° | - | - |
| 1777998206 | 22.78° C | 69% | 1014 hPa | - | 5.81 m/s, 50° | - | - |
| 1777997603 | 22.78° C | 69% | 1014 hPa | - | 5.81 m/s, 50° | - | - |
| 1777997011 | 22.78° C | 69% | 1014 hPa | - | 5.81 m/s, 40° | - | - |
| 1777996407 | 22.78° C | 69% | 1014 hPa | - | 5.81 m/s, 40° | - | - |
| 1777995923 | 22.78° C | 69% | 1014 hPa | - | 5.81 m/s, 40° | - | - |
| 1777995203 | 23.89° C | 60% | 1014 hPa | - | 5.81 m/s, 40° | - | - |
| 1777994605 | 23.89° C | 60% | 1014 hPa | - | 5.81 m/s, 40° | - | - |
| 1777994003 | 23.89° C | 60% | 1014 hPa | - | 5.81 m/s, 40° | - | - |
| 1777993401 | 22.78° C | 69% | 1015 hPa | - | 4.02 m/s, 40° | - | - |
| 1777992803 | 22.78° C | 69% | 1015 hPa | - | 4.02 m/s, 40° | - | - |
| 1777992202 | 22.78° C | 69% | 1015 hPa | - | 4.02 m/s, 40° | - | - |
| 1777991601 | 21.67° C | 68% | 1015 hPa | - | 4.02 m/s, 70° | - | - |
| 1777991003 | 21.67° C | 68% | 1015 hPa | - | 4.02 m/s, 70° | - | - |
| 1777990402 | 21.67° C | 68% | 1015 hPa | - | 4.02 m/s, 70° | - | - |
| 1777989801 | 21.67° C | 73% | 1015 hPa | - | 3.58 m/s, 50° | - | - |
* Rain since midnight (hover to see other rain measurements)
** Current wind speed in m/s (hover to see current wind gust speed)